KUZGTU 1 (RS47S)

Last updated on Sun Apr 12 2026 00:03:15 GMT+0000 (Coordinated Universal Time)

1 57217U 23091AV 26101.48081185 .00010108 00000+0 36752-3 0 9997 2 57217 97.5120 165.3423 0010214 339.0014 21.0805 15.28414439154186
UTC large
Height (km)
Speed (km/s)
/
Latitude / Longitude
Inclination (degrees)
Orbital Period (minutes)
Azimuth
Elevation
Range (km)
Doppler Factor

Next 0 passes for location: London (51.5072 / 0.1276)

Sorry there are no passes over London.
KUZGTU 1 (RS47S)